FENGYUN 1C DEB, 29897

Orbit data source: Space-Track

FENGYUN 1C DEB, 29897 is space debris in SSO originally from a launch on Mon, 10 May 1999 UTC launched from the Taiyaun Space Center, China (TSC). Fengyun 1C debris stems from the Chinese weather satellite Fengyun-1C, which was intentionally destroyed by a Chinese anti-satellite missile in 2007. This event dramatically increased the amount of space debris, with thousands of trackable fragments posing hazards to satellites and human spaceflight. The Fengyun 1C debris cloud has become a focal point in discussions about space sustainability and the need for international regulations to prevent the creation of new debris.

Loading next visibility...
Identifier
29897, 1999-025GT
Orbit
SSO
Country
Flag of CNCN / PRC
Related business
Manufacturer
Unknown
Mission
Spacecraft
Bus & Motor
Unknown
Mass
Unknown
Launch date (UTC)
1999-05-10 (27 years ago)
Launch vehicle
Unknown
Launch site
Taiyaun Space Center, China (TSC)
Object type
Payload
Rocket body
Debris
Shape & HBR
Unknown shape, 0.1 m
Radar Cross Section
Small (<0.1 m²)

Expand to show TLE details & history
Last TLE update: 2 days ago

TLE from 2 days ago
0 FENGYUN 1C DEB
1 29897U 99025GT  26252.78439880  .00001123  00000-0  12025-2 0  9993
2 29897  98.6109  89.3006 0295764 152.2485 273.0199 13.58119321966181
Epoch: 2026-09-09T18:49Z
TLE epoch observation values (Epoch: 2026-09-09T18:49:32.056Z)
Latitude
60.78655°
Longitude
162.45652°
Altitude
1,047.779 km
Speed
7.336 km/s
True Right ascension
04h 54m 41s
True Declination
60° 38' 44"
Sunlit
Object was in daylight at epoch
Visualization orbit readout
Latitude
Unknown
Longitude
Unknown
Altitude
Unknown
Speed
Unknown
Apparent Right ascension
Unknown
Apparent Declination
Unknown
Sunlit
N/A
Visualization observer readout
Local Sidereal Time
13:18:06
Azimuth
Unknown
Elevation
Unknown
Doppler factor
Unknown
Orbital elements
Apogee altitude
1,259.163 km
Perigee altitude
820.374 km
Semi-major axis
7,417.906 km
Eccentricity
0.02958
Inclination
98.6109°
RAAN
89.3006°
Arg. of periapsis
152.2485°
True anomaly
269.63077°
Mean anomaly
273.0199°
Eccentric anomaly
271.32575°
Mean motion
3.3972 °/min
Orbital period
105.97 mins
BSTAR
0.0012025
Loading maneuver chart data...
Computing Atmospheric mass density...
Loading historical data...
Loading historical data...
Loading historical data...
Loading historical data...
Loading historical data...
Loading historical data...
Loading historical data...

Documentation

Showing up to 5 results
|